Regional Weather Roundup
Issued by NWS

Home | Current Version | Previous Version | Text Only | Print | Product List | Glossary On
Versions: 1 2 3 4 5 6 7 8 9 10 11 12 13 14 15 16 17 18 19 20 21 22 23 24 25 26 27 28 29 30 31 32 33 34 35 36 37 38 39 40 41 42 43 44 45 46 47 48 49 50
000
ASUS43 KTOP 292308
RWRKS

WEATHER ROUNDUP FOR KANSAS
NATIONAL WEATHER SERVICE GOODLAND KS
600 PM CDT SUN MAR 29 2015

NOTE:  "FAIR" INDICATES FEW OR NO CLOUDS BELOW 12,000 FEET WITH NO
SIGNIFICANT WEATHER AND/OR OBSTRUCTIONS TO VISIBILITY.

KSZ001>006-013>018-027>032-041>047-300000-
NORTHWEST KANSAS

CITY           SKY/WX    TMP DP  RH WIND       PRES   REMARKS
GOODLAND       SUNNY     64  18  17 VRB7      30.17F
HAYS           SUNNY     66  21  18 N17G26    30.14R
HILL CITY      SUNNY     67  19  16 NE17G24   30.15R
RUSSELL        SUNNY     69  24  18 N17G33    30.10R
$$

KSZ061>065-074>080-084>089-300000-
SOUTHWEST KANSAS

CITY           SKY/WX    TMP DP  RH WIND       PRES   REMARKS
DODGE CITY     SUNNY     70  24  17 N14       30.14S
ELKHART          N/A     70  22  16 N16         N/A
GARDEN CITY    SUNNY     67  24  19 N12       30.15S
GREAT BEND     SUNNY     70  28  21 N17       30.11R
LIBERAL        SUNNY     70  27  19 NE20G26   30.16F
PRATT          SUNNY     70  25  18 N16G24    30.12S
$$

KSZ066>073-081>083-090>101-300000-
SOUTHEAST KANSAS

CITY           SKY/WX    TMP DP  RH WIND       PRES   REMARKS
CHANUTE        PTSUNNY   73  40  30 N12       30.02R
COFFEYVILLE    CLOUDY    65  45  48 SE5       30.03R
HUTCHINSON     SUNNY     72  30  21 NW18G25   30.08R
MEDICINE LODGE   N/A     72  27  18 N20       30.08R
NEWTON         SUNNY     70  34  26 N21G26    30.08S
PARSONS        PTSUNNY   66  45  46 VRB5      30.03S
WICHITA INTL   MOSUNNY   72  33  24 N17       30.05S
WICHITA JABRA  SUNNY     71  34  25 N16G26    30.05R
WICHITA MCCONL SUNNY     72  36  26 NW17G28   30.05R
WINFIELD       MOSUNNY   73  34  23 N17       30.06R
$$

KSZ007>012-019>026-033>040-048>060-102>105-300000-
NORTHEAST KANSAS

CITY           SKY/WX    TMP DP  RH WIND       PRES   REMARKS
CONCORDIA      SUNNY     66  20  17 N22G28    30.10R
EMPORIA        SUNNY     69  33  26 N16G28    30.04R
LAWRENCE       SUNNY     65  41  41 NW23      30.03R
MARYSVILLE     SUNNY     61  32  33 N16G24    30.09R
OLATHE IND     SUNNY     66  41  40 NW21      30.02R
OLATHE EXE     SUNNY     66  41  40 N15G22    30.00R
SALINA         SUNNY     70  29  21 N17       30.08R
TOPEKA BILLARD SUNNY     64  40  41 NW17G24   30.05R
TOPEKA FORBES  SUNNY     66  39  37 N20G28    30.04R
$$



USA.gov is the U.S. government's official web portal to all federal, state and local government web resources and services.